Regional Weather Roundup
Issued by NWS

Home | Current Version | Previous Version | Text Only | Print | Product List | Glossary Off
Versions: 1 2 3 4 5 6 7 8 9 10 11 12 13 14 15 16 17 18 19 20 21 22 23 24 25 26 27 28 29 30 31 32 33 34 35 36 37 38 39 40 41 42 43 44 45 46 47 48 49 50

895
ASUS45 KBOU 051707
RWRCO

WEATHER ROUNDUP FOR COLORADO
NATIONAL WEATHER SERVICE DENVER/BOULDER CO
1100 AM MDT THU MAY 05 2016

NOTE: "FAIR" INDICATES FEW OR NO CLOUDS BELOW 12000 FEET WITH NO
SIGNIFICANT WEATHER AND/OR OBSTRUCTIONS TO VISIBILITY.

COZ001>005-013-030-031-051800-
...NORTHWEST COLORADO...

CITY           SKY/WX    TMP DP  RH WIND       PRES   REMARKS
CRAIG          FAIR      70  31  23 E9        30.16F
HAYDEN         FAIR      64  30  27 E7        30.19F
MEEKER         FAIR      72  31  22 VRB5      30.16F
MOUNT WERNER   NOT AVBL
STEAMBOAT SPGS FAIR      61  31  32 W3        30.21F
WALDEN         FAIR      59  28  31 S5        30.29F
$$

COZ006>008-011-051800-
...WEST CENTRAL VALLEYS...

CITY           SKY/WX    TMP DP  RH WIND       PRES   REMARKS
GRAND JUNCTION FAIR      69  32  25 SE17      30.08F
MONTROSE       FAIR      75  29  18 E10       30.15F
EAGLE          SUNNY     61  27  27 S3        30.25F
RIFLE          FAIR      66  34  30 W3        30.15F
DELTA          NOT AVBL
NUCLA          NOT AVBL
$$

COZ017>023-064>068-051800-
...SOUTHWEST COLORADO...

CITY           SKY/WX    TMP DP  RH WIND       PRES   REMARKS
DURANGO        FAIR      66  26  22 SE10      30.25F
CORTEZ         FAIR      74  29  19 SE15      30.16F
PAGOSA SPRINGS FAIR      64  17  16 S6        30.31F
TELLURIDE      FAIR      62  22  21 E8        30.36S
WOLF CREEK PAS FAIR      45  19  36 S3        30.56S
$$

COZ009-010-012-014-032>034-037-058>063-051800-
...CENTRAL COLORADO...

CITY           SKY/WX    TMP DP  RH WIND       PRES   REMARKS
ASPEN          FAIR      68  21  16 N8        30.26F
BUENA VISTA    FAIR      61  27  27 SE6       30.32F
COPPER MTN     NOT AVBL
BERTHOUD PASS  FAIR      37  30  75 N8G22     30.54R
COTTONWOOD PAS FAIR      59  23  25 E6        30.41S
GUNNISON       FAIR      57  28  33 CALM      30.33F
KREMMLING      FAIR      57  25  28 CALM      30.29F
LEADVILLE      FAIR      55  16  21 VRB6      30.39S
MONARCH PASS   FAIR      43  19  39 W9        30.63S
SALIDA         FAIR      63  28  27 CALM      30.37F
SUNLIGHT       PTSUNNY   54  21  28 SE6       30.47F
WILKERSON PASS FAIR      48  19  32 W6        30.51F
$$

COZ069>075-051800-
...SAN LUIS VALLEY/SANGRE DE CRISTO MOUNTAINS...

CITY           SKY/WX    TMP DP  RH WIND       PRES   REMARKS
ALAMOSA        FAIR      64  21  19 CALM      30.31F
LA VETA PASS   FAIR      54  21  28 S7        30.45S
SAGUACHE       FAIR      61  28  29 SE9       30.34F
$$

COZ035-036-038>040-051800-
...NORTHERN COLORADO FRONT RANGE...

CITY           SKY/WX    TMP DP  RH WIND       PRES   REMARKS
DENVER INTL AP PTSUNNY   72  34  24 N3        30.14F
DMNS CITY PARK   N/A     77  34  20 SE5       30.13S
AURORA         FAIR      74  34  23 NW2       30.16S
FRONT RANGE AP NOT AVBL
ERIE MUNI ARPT FAIR      72  36  26 CALM      30.12F
BOULDER MUN AP FAIR      70  39  32 CALM      30.13S
CENTENNIAL     PTSUNNY   72  20  14 SW6       30.16F
BROOMFIELD     NOT AVBL
FORT COLLINS   FAIR      70  45  40 CALM      30.12F
LONGMONT       FAIR      74  41  29 E3        30.13F
$$

COZ041-046-047-076>085-087-088-051800-
...PIKES PEAK/PALMER DIVIDE AND SOUTHERN FOOTHILLS...

CITY           SKY/WX    TMP DP  RH WIND       PRES   REMARKS
COLO. SPRINGS  FAIR      75  22  13 NW7       30.19F
A. F. ACADEMY  FAIR      72  21  15 VRB7      30.19F
SCHRIEVER AFB  NOT AVBL
ELLICOTT       LGT RAIN N/A N/A N/A E10       30.18S
FALCON         NOT AVBL
FORT CARSON    FAIR      74  33  22 VRB3      30.16F
LIMON          FAIR      72  36  26 S10       30.16F
MONUMENT HILL  FAIR      68  25  19 N5        30.25S
TRINIDAD       FAIR      70  28  21 S6        30.20S
$$

COZ042>045-048>051-090-091-051800-
...NORTHEAST COLORADO...

CITY           SKY/WX    TMP DP  RH WIND       PRES   REMARKS
GREELEY ARPT   FAIR      68  45  42 CALM      30.12F
AKRON          FAIR      74  44  34 SW10      30.11S
BURLINGTON     FAIR      74  38  27 S18       30.12F
WRAY           NOT AVBL
STERLING       FAIR      72  46  40 S12       30.06F
HOLYOKE        NOT AVBL
FORT MORGAN    FAIR      69  40  35 W7        30.11F
$$

COZ086-089-092>099-051800-
...SOUTHEAST COLORADO...

CITY           SKY/WX    TMP DP  RH WIND       PRES   REMARKS
PUEBLO         FAIR      73  39  29 SE6       30.12F
LA JUNTA       FAIR      71  41  33 N6        30.11F
LAMAR          FAIR      70  45  40 CALM      30.08F
SPRINGFIELD      N/A     74  40  29 NW5       30.10F
$$




USA.gov is the U.S. government's official web portal to all federal, state and local government web resources and services.